Location: Oristano
(39.9031°N, 8.5919°E)
Time: 18:42:50
(UTC+00:00)

Daily predictions for brighter satellites

Satellite Brightness Start Highest point End
(mag) Time Altitude Azimuth Time Altitude Azimuth Time Altitude Azimuth
Cosmos 1655 Rocket 4.1 17:00:52 10° N 17:07:04 61° E 17:13:11 10° SSE
BlueWalker 3 4.2 17:09:50 10° NW 17:12:09 15° NNW 17:14:27 10° NNE
Cosmos 1544 Rocket 3.8 17:08:17 10° N 17:12:37 76° W 17:16:55 10° S
ADEOS 3.7 17:10:27 10° SSE 17:15:40 89° WSW 17:20:55 10° NNW
Cosmos 1340 Rocket 2.8 17:12:59 10° S 17:16:50 83° W 17:20:45 10° N
Cosmos 1980 Rocket 3.8 17:14:39 10° WSW 17:19:42 33° WNW 17:24:48 10° N
USA 215 3.3 17:14:26 10° SE 17:20:59 78° NE 17:27:33 10° NW
Okean O Rocket 3.4 17:20:08 10° E 17:21:51 12° ENE 17:23:34 10° NE
Cosmos 2266 Rocket 4.1 17:17:01 10° N 17:23:19 87° W 17:29:28 10° S
ATLAS CENTAUR R/B 3.5 17:19:45 10° WSW 17:23:45 27° NW 17:27:41 10° N
Radarsat Rocket 4.0 17:18:59 10° SSE 17:24:54 79° ENE 17:31:27 10° NNW
Cosmos 1763 Rocket 4.1 17:20:44 10° N 17:25:23 33° ENE 17:29:58 10° SE
ATLAS 2AS CENTAUR R/B 3.0 17:21:57 10° NNW 17:28:34 43° NE 17:34:49 10° ESE
SL-08 ROCKET BODY 4.4 17:23:38 10° N 17:29:23 54° E 17:35:05 10° SSE
Cosmos 2237 4.3 17:26:08 10° S 17:31:46 64° ESE 17:37:26 10° NNE
Cosmos 2263 Rocket 3.1 17:31:20 10° NNW 17:36:45 54° WSW 17:42:08 10° S
Cosmos 1461 3.1 17:36:06 10° SSW 17:40:10 55° ESE 17:44:27 10° NE
Lacrosse 5 1.9 17:37:24 10° SW 17:42:31 83° NW 17:47:30 11° NE
Cosmos 540 Rocket 4.2 17:38:03 10° N 17:42:33 30° ENE 17:47:01 10° ESE
Genesis I 4.0 17:40:10 10° S 17:43:42 32° ESE 17:46:07 17° ENE
SKYMED 2 3.8 17:41:42 10° N 17:46:03 73° WNW 17:50:22 10° SSW
Cosmos 2058 Rocket 4.1 17:46:38 10° NNE 17:50:15 24° ENE 17:53:52 10° SE
PSLV R/B 3.9 17:48:13 10° SE 17:51:40 42° ENE 17:55:10 10° N
YAOGAN 1 2.9 17:49:24 10° SE 17:53:28 43° ENE 17:57:33 10° N
Cosmos 676 Rocket 4.0 17:49:50 10° SSW 17:55:08 88° ESE 18:00:27 10° NNE
BREEZE-M DEB (TANK) 2.8 17:51:26 10° WNW 17:56:01 51° SW 17:58:24 10° SE
Meteor 1-11 4.3 17:54:05 10° S 17:59:55 88° WNW 18:05:45 10° N
CZ-4B DEB 4.3 17:58:19 10° SSE 18:03:45 83° WSW 18:09:14 10° NNW
BREEZE M DEB (TANK) 2.1 17:59:54 10° WNW 18:04:08 84° NNE 18:05:09 33° ESE
Lacrosse 5 rocket 3.0 18:02:33 10° N 18:04:27 15° NNE 18:04:27 15° NNE
CZ-4 R/B 2.0 18:01:10 10° SE 18:04:54 34° ENE 18:08:37 10° N
IRIDIUM 106 4.4 18:01:42 10° N 18:06:47 50° E 18:11:49 10° SSE
CZ-4B R/B 3.2 18:02:21 10° SSE 18:07:31 55° ENE 18:12:47 10° N
Cosmos 1844 Rocket 2.7 18:02:19 10° NNW 18:07:48 54° ENE 18:13:13 10° SE
S3M 4.5 18:03:18 10° SSE 18:09:05 38° E 18:14:53 10° NNE
Meteor 2-12 Rocket 4.3 18:05:23 10° N 18:11:27 71° E 18:17:28 10° SSE
Nadezhda 2 Rocket 4.4 18:06:17 10° N 18:12:29 78° E 18:18:34 10° S
MOS 1-B 4.3 18:08:59 10° SSE 18:14:43 69° ENE 18:20:30 10° N
Spot 1 3.9 18:17:39 26° NE 18:19:40 54° E 18:23:39 10° S
Cosmos 1633 2.6 18:16:34 10° SSW 18:19:53 68° W 18:23:14 10° N
Cosmos 1844 3.7 18:14:52 10° NNW 18:20:37 60° ENE 18:26:02 11° SE
Cosmos 1606 Rocket 4.0 18:16:35 10° NNW 18:20:50 61° W 18:25:05 10° S
RESURS DK-1 2.7 18:18:09 10° N 18:21:56 42° NE 18:21:56 42° NE
Atlas Centaur 2 4.0 18:15:51 10° SW 18:22:58 33° SSE 18:27:05 22° ESE
ISS -3.4 18:20:07 10° WNW 18:23:27 62° SW 18:24:23 41° SSE
Cosmos 2360 Rocket 2.2 18:19:04 10° SSW 18:24:42 81° WNW 18:30:24 10° NNE
Cosmos 2219 Rocket 2.4 18:20:11 10° S 18:25:26 44° ESE 18:27:04 35° ENE
Cosmos 1892 Rocket 3.9 18:24:07 10° SSW 18:28:31 68° W 18:32:55 10° N
Cosmos 2333 Rocket 2.1 18:23:49 10° SSW 18:29:26 73° ESE 18:33:11 22° NNE
PLATFORM 4.4 18:26:35 10° NNW 18:30:24 75° ENE 18:30:41 70° ESE
Delta 2 Rocket 3.7 18:30:19 10° WSW 18:33:17 39° S 18:33:17 39° S
Cosmos 2322 Rocket 3.2 18:31:01 10° SW 18:36:20 44° WNW 18:41:43 10° N
Feng Yun 1-1 Rocket 4.1 18:31:59 10° SSE 18:37:32 66° ENE 18:42:58 10° N
Cosmos 1825 4.0 18:34:39 10° SW 18:37:56 30° WNW 18:41:14 10° NNW
SL-4 R/B 4.2 18:42:10 10° NNW 18:43:14 13° N 18:43:14 13° N
COSMOS 2428 3.6 18:39:30 10° S 18:42:56 31° SE 18:42:56 31° SE
SL-16 R/B 4.2 18:45:58 10° WSW 18:50:34 25° NW 18:55:11 10° N
Cosmos 2333 4.2 18:46:02 10° SSW 18:51:37 78° WNW 18:54:40 29° NNE
CSL-04 Debris 4.4 18:56:13 50° NNE 18:56:13 50° NNE 19:00:28 10° N
Okean O Rocket 1.9 18:53:16 10° S 18:57:36 65° W 19:01:59 10° NNW
Cosmos 1745 Rocket 3.9 18:53:10 10° N 18:59:26 88° E 19:05:36 10° S
USA 81 3.9 18:54:15 10° S 18:59:30 80° E 18:59:33 80° E
Cosmos 1850 Rocket 4.5 18:59:30 10° SSW 19:04:36 58° WNW 19:07:01 30° N
Cosmos 1386 Rocket 4.5 18:58:53 10° N 19:04:53 77° W 19:10:55 10° S
Cosmos 44 Rocket 3.5 19:03:28 10° SW 19:07:45 65° W 19:07:45 65° W
Cosmos 2322 3.6 19:06:30 10° SSW 19:11:59 83° SSW 19:11:59 83° SSW
Cosmos 1709 Rocket 4.3 19:11:56 10° N 19:16:27 51° N 19:16:27 51° N
Cosmos 841 Rocket 3.8 19:13:49 10° NNW 19:19:02 62° WSW 19:19:11 62° WSW
ATLAS 2AS CENTAUR R/B 3.8 19:13:08 10° NW 19:19:22 38° WSW 19:25:18 10° S
Lacrosse 5 3.8 19:22:21 10° WNW 19:26:10 21° NNW 19:26:44 20° NNW
CZ-4 R/B 4.1 19:37:00 10° SW 19:39:50 18° W 19:42:41 10° NW
BREEZE-M DEB (TANK) 4.0 19:39:53 10° WNW 19:44:07 74° NNW 19:44:07 74° NNW
Cosmos 2219 Rocket 4.1 20:04:56 10° WSW 20:08:52 25° WNW 20:08:52 25° WNW
Atlas Centaur 2 4.1 20:04:07 10° WSW 20:09:35 36° SW 20:09:35 36° SW
